Location: Coopersdale
(40.3556°N, 78.9372°W)
Time: 03:24:48
(UTC+00:00)

Tiros 1 despin weight - Pass Details

Date: 25 January 2021
Orbit: 593 x 642 km, 48.2° (Epoch: 02 March)

Event Time Altitude Azimuth Distance (km) Brightness Sun altitude
Rises 02:49:53 0° 283° (WNW) 2,831 - -50.0°
Reaches altitude 10° 02:53:26 10° 254° (WSW) 1,920 - -50.6°
Maximum altitude 02:55:15 12° 229° (SW) 1,764 - -50.9°
Drops below altitude 10° 02:57:04 10° 205° (SSW) 1,913 - -51.3°
Sets 03:00:35 0° 175° (S) 2,810 - -51.9°
